HAIYANG-2A

Last updated on Thu Oct 30 2025 00:02:31 GMT+0000 (Coordinated Universal Time)

1 37781U 11043A 25302.51357829 .00000000 00000+0 43081-4 0 9996 2 37781 99.3381 304.1268 0000988 138.5248 221.5979 13.78830225714894
UTC large
Height (km)
Speed (km/s)
/
Latitude / Longitude
Inclination (degrees)
Orbital Period (minutes)
Azimuth
Elevation
Range (km)
Doppler Factor

Next 0 passes for location: London (51.5072 / 0.1276)

Sorry there are no passes over London.